Showing default

GGSE 5, 2834

Orbit data source: Space-Track

GGSE 5, 2834 is an American payload satellite in LEO that was launched on Wed, 31 May 1967 UTC via a THOR SLV-2 AGENA D launch vehicle from the Air Force Western Test Range (AFWTR). Payload-class satellites include a variety of spacecraft equipped with specific instruments for various scientific and technological missions. These include communications satellites like Starlink; space stations such as the ISS; scientific satellites like the Hubble; Earth observation satellites from companies like Planet Labs, Umbra, and HawkEye 360; GPS; miniature CubeSats for education and research; and military/defense satellites.

Loading next visibility...
Identifier
2834, 1967-053D
Orbit
LEO
Country
Flag of USUS
Related business
Manufacturer
NRL
Mission
Spacecraft
Bus & Motor
NRL MULTI, Unknown motor
Mass
105 kg wet, 105 kg dry
Launch date (UTC)
1967-05-31 (58 years ago)
Launch vehicle
THOR SLV-2 AGENA D
Launch site
Air Force Western Test Range (AFWTR)
Object type
Payload
Rocket body
Debris
Shape & HBR
Unknown
Radar Cross Section
Medium (>0.1 m² and <1 m²)

Expand to show TLE details & history
Last TLE update: 13 hours ago

TLE from 13 hours ago
0 GGSE 5
1 02834U 67053D   25305.63159718  .00000021  00000-0  53999-4 0  9995
2 02834  69.9721 260.2907 0006148 167.5502 192.5756 13.96151579974376
Epoch: 2025-11-01T15:09Z
TLE epoch observation values (Epoch: 2025-11-01T15:09:29.996Z)
Latitude
-0.00007°
Longitude
-8.24321°
Altitude
913.835 km
Speed
7.393 km/s
True Right ascension
17h 21m 09s
True Declination
0° 00' 00"
Sunlit
Object was in daylight at epoch
Visualization orbit readout
Latitude
Unknown
Longitude
Unknown
Altitude
Unknown
Speed
Unknown
Apparent Right ascension
Unknown
Apparent Declination
Unknown
Sunlit
N/A
Visualization observer readout
Local Sidereal Time
23:48:19
Azimuth
Unknown
Elevation
Unknown
Doppler factor
Unknown
Orbital elements
Apogee altitude
909.676 km
Perigee altitude
900.72 km
Semi-major axis
7,283.335 km
Eccentricity
0.00061
Inclination
69.9721°
RAAN
260.2907°
Arg. of periapsis
167.5502°
True anomaly
192.56027°
Mean anomaly
192.5756°
Eccentric anomaly
192.56794°
Mean motion
3.49179 °/min
Orbital period
103.1 mins
BSTAR
0.000053999
Loading maneuver chart data...
Computing Atmospheric mass density...
Loading historical data...
Loading historical data...
Loading historical data...
Loading historical data...
Loading historical data...
Loading historical data...
Loading historical data...

Documentation

Showing up to 5 results
|